QPF
0.00 0.00 0.00 0.00 0.00 0.00 0.00 0.01 0.01 0.02 0.02 0.02 0.02 0.02 0.02 0.02 0.03 0.03 0.03 0.03 0.03 0.03 0.03 0.04 0.04 0.04 0.04 0.03 0.02 0.02 0.02 0.02 0.02 0.01 0.01 0.01 0.01 0.01 0.01 0.01 0.01 0.01 0.01
0.00 0.00 0.00 0.00 0.00 0.00 0.00 0.00 0.00 0.01 0.02 0.02 0.02 0.02 0.02 0.02 0.03 0.03 0.04 0.04 0.04 0.04 0.04 0.04 0.05 0.05 0.04 0.05 0.04 0.03 0.02 0.02 0.02 0.01 0.01 0.01 0.01 0.01 0.00 0.01 0.01 0.01 0.01
0.00 0.00 0.00 0.00 0.00 0.00 0.00 0.00 0.00 0.01 0.01 0.02 0.02 0.02 0.02 0.02 0.03 0.04 0.04 0.04 0.04 0.04 0.06 0.07 0.06 0.06 0.05 0.06 0.06 0.04 0.04 0.03 0.03 0.02 0.01 0.01 0.01 0.00 0.00 0.01 0.01 0.01 0.01
0.00 0.00 0.00 0.00 0.00 0.00 0.00 0.00 0.00 0.00 0.01 0.02 0.02 0.03 0.03 0.02 0.02 0.04 0.04 0.04 0.04 0.04 0.05 0.07 0.08 0.07 0.06 0.05 0.05 0.04 0.04 0.04 0.03 0.02 0.01 0.00 0.01 0.00 0.00 0.01 0.01 0.01 0.01
0.00 0.00 0.00 0.00 0.00 0.00 0.00 0.00 0.00 0.00 0.00 0.01 0.02 0.03 0.04 0.04 0.04 0.03 0.03 0.04 0.04 0.05 0.05 0.06 0.07 0.07 0.07 0.06 0.04 0.03 0.03 0.04 0.03 0.02 0.01 0.01 0.01 0.01 0.00 0.01 0.01 0.01 0.01
0.00 0.00 0.00 0.00 0.00 0.00 0.00 0.00 0.00 0.01 0.00 0.01 0.02 0.02 0.03 0.04 0.05 0.04 0.04 0.04 0.04 0.05 0.05 0.06 0.07 0.07 0.06 0.06 0.04 0.03 0.03 0.03 0.02 0.01 0.01 0.01 0.01 0.01 0.01 0.01 0.01 0.01 0.01
0.00 0.00 0.00 0.00 0.00 0.00 0.00 0.01 0.01 0.01 0.01 0.01 0.01 0.02 0.03 0.03 0.04 0.04 0.03 0.04 0.05 0.05 0.05 0.05 0.07 0.07 0.06 0.05 0.04 0.03 0.03 0.02 0.01 0.01 0.01 0.01 0.01 0.01 0.01 0.02 0.01 0.01 0.01
0.00 0.00 0.00 0.00 0.00 0.00 0.00 0.01 0.01 0.01 0.01 0.01 0.01 0.02 0.03 0.03 0.03 0.03 0.03 0.03 0.04 0.04 0.05 0.05 0.06 0.06 0.06 0.05 0.04 0.04 0.03 0.02 0.01 0.01 0.01 0.01 0.01 0.01 0.02 0.02 0.01 0.01 0.01
0.00 0.00 0.00 0.00 0.00 0.01 0.01 0.01 0.01 0.02 0.02 0.02 0.01 0.02 0.02 0.03 0.02 0.03 0.03 0.03 0.03 0.04 0.04 0.05 0.06 0.06 0.06 0.05 0.04 0.04 0.04 0.03 0.02 0.01 0.00 0.01 0.01 0.01 0.02 0.03 0.01 0.01 0.01
0.00 0.00 0.00 0.00 0.00 0.00 0.00 0.01 0.01 0.01 0.02 0.02 0.02 0.02 0.03 0.03 0.02 0.02 0.03 0.03 0.03 0.03 0.03 0.04 0.05 0.06 0.05 0.05 0.04 0.04 0.04 0.03 0.02 0.01 0.01 0.01 0.01 0.02 0.03 0.03 0.02 0.01 0.01
0.00 0.00 0.00 0.00 0.00 0.00 0.00 0.01 0.01 0.01 0.02 0.02 0.02 0.02 0.03 0.03 0.03 0.03 0.02 0.02 0.03 0.03 0.03 0.03 0.04 0.05 0.05 0.05 0.04 0.03 0.03 0.03 0.02 0.01 0.01 0.00 0.01 0.03 0.04 0.04 0.03 0.02 0.01
0.00 0.00 0.00 0.00 0.00 0.00 0.00 0.00 0.01 0.01 0.02 0.02 0.02 0.02 0.02 0.02 0.03 0.04 0.03 0.03 0.02 0.03 0.03 0.03 0.04 0.06 0.07 0.05 0.04 0.04 0.03 0.02 0.02 0.02 0.01 0.01 0.02 0.03 0.04 0.05 0.04 0.02 0.01
0.00 0.00 0.00 0.00 0.00 0.00 0.00 0.00 0.01 0.01 0.02 0.02 0.02 0.02 0.02 0.02 0.03 0.03 0.03 0.03 0.03 0.03 0.03 0.03 0.04 0.04 0.05 0.05 0.04 0.03 0.02 0.02 0.02 0.01 0.01 0.01 0.01 0.03 0.05 0.05 0.05 0.03 0.02
0.00 0.00 0.00 0.00 0.00 0.00 0.00 0.00 0.01 0.01 0.02 0.02 0.01 0.02 0.02 0.03 0.03 0.03 0.03 0.03 0.03 0.03 0.02 0.02 0.03 0.03 0.04 0.06 0.06 0.05 0.04 0.04 0.03 0.02 0.01 0.01 0.01 0.02 0.04 0.05 0.06 0.05 0.04
0.00 0.00 0.00 0.00 0.00 0.00 0.00 0.00 0.01 0.01 0.01 0.02 0.02 0.02 0.02 0.04 0.04 0.03 0.03 0.03 0.03 0.02 0.02 0.02 0.02 0.03 0.04 0.06 0.06 0.06 0.05 0.05 0.04 0.03 0.02 0.02 0.01 0.02 0.03 0.05 0.06 0.06 0.05
0.00 0.00 0.00 0.00 0.00 0.00 0.00 0.00 0.00 0.00 0.01 0.01 0.02 0.03 0.03 0.05 0.05 0.03 0.03 0.05 0.04 0.02 0.02 0.02 0.02 0.03 0.03 0.04 0.05 0.06 0.05 0.05 0.05 0.04 0.02 0.02 0.02 0.02 0.02 0.04 0.06 0.07 0.07
0.00 0.00 0.00 0.00 0.01 0.00 0.00 0.01 0.00 0.00 0.01 0.01 0.02 0.03 0.04 0.05 0.06 0.05 0.03 0.04 0.05 0.04 0.03 0.03 0.03 0.04 0.03 0.03 0.04 0.05 0.05 0.05 0.05 0.05 0.04 0.04 0.03 0.03 0.03 0.04 0.05 0.07 0.08
0.00 0.00 0.00 0.00 0.02 0.01 0.01 0.01 0.01 0.01 0.01 0.01 0.02 0.03 0.04 0.04 0.05 0.04 0.03 0.04 0.06 0.06 0.05 0.04 0.04 0.04 0.03 0.03 0.03 0.04 0.05 0.04 0.04 0.04 0.04 0.04 0.03 0.03 0.03 0.03 0.04 0.06 0.07
0.00 0.00 0.00 0.00 0.01 0.02 0.01 0.02 0.01 0.01 0.01 0.01 0.02 0.03 0.03 0.03 0.03 0.02 0.02 0.02 0.05 0.06 0.05 0.05 0.04 0.03 0.03 0.03 0.04 0.04 0.05 0.05 0.05 0.04 0.04 0.04 0.03 0.03 0.02 0.03 0.04 0.04 0.05
0.00 0.00 0.00 0.00 0.00 0.02 0.03 0.03 0.03 0.02 0.01 0.01 0.01 0.01 0.02 0.03 0.02 0.02 0.02 0.02 0.04 0.06 0.05 0.04 0.04 0.04 0.04 0.04 0.05 0.05 0.04 0.05 0.06 0.06 0.05 0.05 0.04 0.04 0.03 0.03 0.04 0.04 0.05
0.00 0.00 0.00 0.00 0.00 0.00 0.02 0.02 0.03 0.03 0.01 0.01 0.01 0.01 0.01 0.02 0.03 0.02 0.02 0.02 0.03 0.06 0.06 0.05 0.05 0.05 0.05 0.05 0.07 0.07 0.06 0.06 0.06 0.06 0.06 0.05 0.04 0.04 0.04 0.03 0.03 0.03 0.04
0.00 0.00 0.00 0.00 0.00 0.00 0.00 0.01 0.01 0.01 0.01 0.01 0.01 0.02 0.01 0.01 0.02 0.02 0.02 0.02 0.03 0.05 0.06 0.06 0.05 0.05 0.06 0.06 0.07 0.08 0.09 0.09 0.08 0.06 0.05 0.05 0.04 0.04 0.03 0.03 0.03 0.03 0.03
0.00 0.00 0.00 0.00 0.00 0.00 0.00 0.00 0.01 0.01 0.01 0.01 0.02 0.03 0.02 0.01 0.01 0.02 0.02 0.02 0.03 0.05 0.07 0.06 0.06 0.06 0.06 0.06 0.07 0.08 0.08 0.07 0.07 0.06 0.05 0.04 0.04 0.04 0.03 0.03 0.03 0.03 0.03
0.00 0.00 0.00 0.00 0.00 0.00 0.00 0.00 0.00 0.00 0.01 0.01 0.02 0.03 0.02 0.02 0.02 0.02 0.02 0.02 0.03 0.05 0.07 0.07 0.06 0.07 0.07 0.06 0.06 0.07 0.07 0.07 0.06 0.06 0.05 0.03 0.03 0.03 0.03 0.03 0.03 0.04 0.04
0.00 0.00 0.00 0.00 0.00 0.00 0.00 0.00 0.00 0.01 0.01 0.01 0.03 0.03 0.02 0.03 0.03 0.02 0.02 0.02 0.03 0.04 0.07 0.07 0.07 0.07 0.07 0.07 0.06 0.07 0.07 0.07 0.07 0.07 0.06 0.04 0.03 0.03 0.03 0.03 0.04 0.04 0.04
0.00 0.00 0.00 0.01 0.00 0.00 0.00 0.00 0.01 0.01 0.01 0.02 0.04 0.04 0.03 0.02 0.02 0.02 0.02 0.02 0.03 0.05 0.07 0.07 0.07 0.06 0.07 0.09 0.09 0.08 0.08 0.07 0.06 0.06 0.06 0.06 0.05 0.04 0.04 0.04 0.04 0.04 0.04
MSLP
1017.59 1017.12 1016.59 1016.10 1015.70 1015.42 1015.22 1015.06 1014.88 1014.63 1014.30 1013.89 1013.44 1012.98 1012.55 1012.20 1011.92 1011.71 1011.55 1011.41 1011.28 1011.13 1010.98 1010.83 1010.70 1010.61 1010.55 1010.52 1010.52 1010.54 1010.56 1010.58 1010.61 1010.64 1010.68 1010.74 1010.79 1010.86 1010.91 1010.95 1010.98 1010.99 1011.01
1017.47 1017.04 1016.56 1016.14 1015.80 1015.56 1015.40 1015.26 1015.09 1014.86 1014.54 1014.15 1013.73 1013.31 1012.92 1012.60 1012.34 1012.14 1011.96 1011.79 1011.61 1011.40 1011.19 1010.97 1010.77 1010.60 1010.46 1010.36 1010.30 1010.26 1010.25 1010.27 1010.30 1010.36 1010.44 1010.53 1010.62 1010.70 1010.77 1010.81 1010.83 1010.85 1010.87
1017.42 1017.02 1016.61 1016.24 1015.95 1015.76 1015.61 1015.48 1015.32 1015.09 1014.78 1014.42 1014.03 1013.65 1013.31 1013.01 1012.77 1012.55 1012.35 1012.13 1011.88 1011.61 1011.33 1011.04 1010.77 1010.53 1010.33 1010.17 1010.05 1009.97 1009.92 1009.92 1009.96 1010.04 1010.14 1010.26 1010.38 1010.48 1010.56 1010.60 1010.62 1010.64 1010.66
1017.41 1017.06 1016.70 1016.40 1016.17 1016.00 1015.87 1015.74 1015.57 1015.33 1015.03 1014.69 1014.33 1013.99 1013.68 1013.41 1013.16 1012.93 1012.68 1012.40 1012.09 1011.76 1011.41 1011.06 1010.74 1010.44 1010.19 1009.97 1009.81 1009.68 1009.61 1009.58 1009.61 1009.69 1009.80 1009.94 1010.06 1010.18 1010.26 1010.30 1010.33 1010.35 1010.38
1017.42 1017.13 1016.84 1016.60 1016.42 1016.29 1016.17 1016.03 1015.84 1015.59 1015.28 1014.95 1014.62 1014.31 1014.02 1013.76 1013.51 1013.25 1012.95 1012.62 1012.25 1011.85 1011.45 1011.06 1010.70 1010.37 1010.08 1009.83 1009.62 1009.45 1009.33 1009.27 1009.27 1009.32 1009.42 1009.54 1009.67 1009.78 1009.86 1009.91 1009.95 1009.98 1010.03
1017.43 1017.19 1016.98 1016.82 1016.70 1016.61 1016.49 1016.34 1016.12 1015.85 1015.54 1015.21 1014.89 1014.60 1014.33 1014.07 1013.81 1013.52 1013.18 1012.80 1012.38 1011.94 1011.51 1011.09 1010.71 1010.36 1010.05 1009.76 1009.51 1009.29 1009.12 1008.99 1008.94 1008.94 1009.00 1009.09 1009.19 1009.29 1009.37 1009.43 1009.49 1009.54 1009.61
1017.40 1017.23 1017.11 1017.04 1016.99 1016.92 1016.82 1016.65 1016.41 1016.11 1015.78 1015.45 1015.14 1014.85 1014.60 1014.34 1014.07 1013.75 1013.38 1012.96 1012.51 1012.05 1011.60 1011.18 1010.79 1010.43 1010.10 1009.79 1009.49 1009.21 1008.96 1008.76 1008.63 1008.56 1008.55 1008.59 1008.66 1008.73 1008.81 1008.88 1008.95 1009.04 1009.15
1017.34 1017.25 1017.22 1017.23 1017.24 1017.22 1017.13 1016.95 1016.68 1016.36 1016.01 1015.67 1015.36 1015.08 1014.83 1014.57 1014.29 1013.96 1013.56 1013.12 1012.66 1012.18 1011.73 1011.32 1010.93 1010.58 1010.23 1009.88 1009.53 1009.19 1008.86 1008.57 1008.34 1008.18 1008.09 1008.07 1008.08 1008.13 1008.19 1008.27 1008.37 1008.49 1008.63
1017.26 1017.25 1017.30 1017.39 1017.46 1017.47 1017.39 1017.20 1016.92 1016.57 1016.20 1015.86 1015.55 1015.28 1015.03 1014.77 1014.48 1014.14 1013.73 1013.28 1012.80 1012.33 1011.89 1011.48 1011.11 1010.75 1010.39 1010.02 1009.62 1009.21 1008.80 1008.41 1008.08 1007.83 1007.65 1007.55 1007.50 1007.51 1007.55 1007.63 1007.74 1007.89 1008.08
1017.18 1017.24 1017.36 1017.51 1017.63 1017.66 1017.58 1017.38 1017.08 1016.72 1016.35 1016.00 1015.69 1015.43 1015.19 1014.93 1014.64 1014.28 1013.86 1013.40 1012.92 1012.46 1012.02 1011.63 1011.27 1010.92 1010.55 1010.15 1009.71 1009.23 1008.75 1008.28 1007.86 1007.51 1007.24 1007.06 1006.95 1006.90 1006.91 1006.98 1007.10 1007.27 1007.48
1017.13 1017.24 1017.41 1017.59 1017.73 1017.77 1017.68 1017.47 1017.15 1016.79 1016.41 1016.07 1015.77 1015.52 1015.28 1015.03 1014.73 1014.36 1013.94 1013.47 1012.99 1012.52 1012.10 1011.72 1011.36 1011.02 1010.65 1010.23 1009.76 1009.24 1008.70 1008.16 1007.66 1007.23 1006.87 1006.61 1006.43 1006.33 1006.30 1006.33 1006.44 1006.61 1006.84
1017.12 1017.25 1017.44 1017.63 1017.76 1017.79 1017.68 1017.44 1017.12 1016.74 1016.38 1016.05 1015.78 1015.54 1015.31 1015.06 1014.75 1014.37 1013.93 1013.45 1012.96 1012.50 1012.08 1011.70 1011.36 1011.02 1010.66 1010.24 1009.75 1009.21 1008.63 1008.04 1007.48 1006.98 1006.56 1006.22 1005.97 1005.80 1005.70 1005.69 1005.76 1005.91 1006.13
1017.14 1017.28 1017.46 1017.62 1017.71 1017.70 1017.55 1017.29 1016.95 1016.59 1016.24 1015.93 1015.68 1015.46 1015.24 1014.99 1014.67 1014.28 1013.83 1013.33 1012.84 1012.37 1011.95 1011.59 1011.25 1010.93 1010.57 1010.15 1009.67 1009.12 1008.52 1007.90 1007.31 1006.75 1006.27 1005.86 1005.53 1005.29 1005.13 1005.05 1005.06 1005.17 1005.37
1017.18 1017.29 1017.43 1017.54 1017.58 1017.50 1017.31 1017.02 1016.67 1016.32 1015.99 1015.71 1015.48 1015.28 1015.07 1014.82 1014.50 1014.10 1013.63 1013.12 1012.62 1012.15 1011.73 1011.37 1011.04 1010.72 1010.38 1009.98 1009.50 1008.96 1008.36 1007.74 1007.11 1006.52 1005.98 1005.51 1005.11 1004.79 1004.55 1004.39 1004.34 1004.40 1004.55
1017.19 1017.27 1017.35 1017.39 1017.35 1017.21 1016.96 1016.64 1016.29 1015.94 1015.63 1015.38 1015.17 1014.99 1014.79 1014.54 1014.21 1013.80 1013.33 1012.82 1012.31 1011.84 1011.42 1011.07 1010.75 1010.44 1010.11 1009.72 1009.26 1008.73 1008.14 1007.51 1006.86 1006.24 1005.66 1005.13 1004.66 1004.26 1003.94 1003.72 1003.59 1003.59 1003.70
1017.16 1017.19 1017.20 1017.16 1017.04 1016.83 1016.54 1016.19 1015.83 1015.48 1015.19 1014.95 1014.75 1014.58 1014.38 1014.13 1013.80 1013.39 1012.92 1012.42 1011.92 1011.46 1011.05 1010.70 1010.39 1010.08 1009.76 1009.38 1008.94 1008.41 1007.83 1007.20 1006.54 1005.89 1005.27 1004.68 1004.15 1003.69 1003.30 1003.00 1002.82 1002.75 1002.82
1017.06 1017.02 1016.96 1016.85 1016.66 1016.39 1016.06 1015.69 1015.32 1014.97 1014.67 1014.43 1014.23 1014.04 1013.83 1013.57 1013.25 1012.85 1012.40 1011.92 1011.45 1011.01 1010.62 1010.28 1009.97 1009.67 1009.35 1008.98 1008.54 1008.02 1007.43 1006.80 1006.13 1005.45 1004.79 1004.16 1003.58 1003.05 1002.61 1002.26 1002.02 1001.92 1001.95
1016.88 1016.78 1016.65 1016.47 1016.22 1015.91 1015.55 1015.16 1014.77 1014.41 1014.10 1013.83 1013.59 1013.37 1013.14 1012.87 1012.54 1012.16 1011.74 1011.31 1010.88 1010.48 1010.12 1009.80 1009.50 1009.21 1008.89 1008.51 1008.07 1007.55 1006.96 1006.32 1005.63 1004.93 1004.24 1003.56 1002.93 1002.37 1001.88 1001.49 1001.22 1001.09 1001.10
1016.63 1016.47 1016.28 1016.04 1015.76 1015.41 1015.03 1014.63 1014.21 1013.82 1013.46 1013.14 1012.84 1012.57 1012.29 1011.99 1011.67 1011.31 1010.94 1010.56 1010.18 1009.84 1009.52 1009.23 1008.96 1008.67 1008.36 1007.98 1007.54 1007.02 1006.43 1005.77 1005.07 1004.35 1003.62 1002.92 1002.25 1001.65 1001.13 1000.72 1000.44 1000.29 1000.29
1016.34 1016.12 1015.87 1015.60 1015.28 1014.91 1014.51 1014.08 1013.64 1013.19 1012.76 1012.36 1011.98 1011.63 1011.29 1010.95 1010.63 1010.30 1009.97 1009.66 1009.36 1009.08 1008.82 1008.57 1008.32 1008.06 1007.75 1007.38 1006.95 1006.44 1005.85 1005.20 1004.49 1003.75 1003.00 1002.26 1001.57 1000.94 1000.40 999.97 999.68 999.53 999.53
1016.05 1015.76 1015.46 1015.14 1014.79 1014.41 1013.99 1013.53 1013.04 1012.52 1012.01 1011.50 1011.02 1010.56 1010.15 1009.77 1009.44 1009.13 1008.86 1008.62 1008.39 1008.19 1007.99 1007.79 1007.58 1007.33 1007.05 1006.71 1006.30 1005.81 1005.25 1004.61 1003.92 1003.17 1002.40 1001.64 1000.92 1000.26 999.70 999.26 998.96 998.80 998.79
1015.77 1015.42 1015.06 1014.69 1014.31 1013.90 1013.44 1012.94 1012.40 1011.81 1011.19 1010.57 1009.97 1009.41 1008.92 1008.49 1008.14 1007.85 1007.63 1007.45 1007.29 1007.15 1007.01 1006.86 1006.69 1006.48 1006.24 1005.94 1005.58 1005.15 1004.63 1004.04 1003.37 1002.64 1001.87 1001.09 1000.34 999.66 999.07 998.60 998.28 998.11 998.09
1015.53 1015.11 1014.68 1014.25 1013.82 1013.36 1012.87 1012.32 1011.70 1011.03 1010.31 1009.58 1008.87 1008.21 1007.64 1007.16 1006.78 1006.51 1006.31 1006.17 1006.07 1005.98 1005.88 1005.77 1005.64 1005.48 1005.29 1005.06 1004.77 1004.42 1003.98 1003.46 1002.85 1002.16 1001.41 1000.63 999.86 999.14 998.52 998.01 997.65 997.45 997.40
1015.34 1014.83 1014.32 1013.81 1013.31 1012.80 1012.24 1011.63 1010.95 1010.20 1009.40 1008.57 1007.76 1007.01 1006.36 1005.83 1005.42 1005.13 1004.94 1004.82 1004.74 1004.67 1004.59 1004.51 1004.41 1004.30 1004.17 1004.02 1003.84 1003.60 1003.28 1002.87 1002.35 1001.73 1001.01 1000.25 999.47 998.72 998.04 997.49 997.08 996.82 996.72
1015.18 1014.57 1013.96 1013.36 1012.77 1012.18 1011.56 1010.88 1010.14 1009.32 1008.45 1007.54 1006.66 1005.84 1005.12 1004.53 1004.08 1003.76 1003.55 1003.41 1003.31 1003.22 1003.15 1003.07 1003.00 1002.93 1002.88 1002.83 1002.77 1002.67 1002.49 1002.22 1001.83 1001.30 1000.65 999.92 999.14 998.36 997.64 997.03 996.55 996.23 996.06
1015.01 1014.31 1013.58 1012.87 1012.18 1011.49 1010.80 1010.06 1009.27 1008.40 1007.47 1006.52 1005.58 1004.70 1003.92 1003.28 1002.77 1002.39 1002.12 1001.92 1001.77 1001.65 1001.55 1001.46 1001.40 1001.38 1001.40 1001.47 1001.54 1001.60 1001.60 1001.49 1001.25 1000.84 1000.29 999.61 998.84 998.06 997.30 996.62 996.08 995.68 995.44
Thickness
5723 5728 5731 5734 5737 5739 5741 5743 5745 5747 5748 5750 5751 5752 5753 5753 5754 5754 5754 5754 5754 5754 5754 5753 5752 5751 5751 5750 5749 5749 5748 5747 5747 5746 5745 5744 5743 5742 5741 5740 5738 5737 5736
5722 5725 5727 5730 5732 5734 5736 5738 5740 5742 5743 5745 5746 5747 5748 5749 5750 5750 5750 5751 5751 5751 5751 5750 5750 5749 5748 5747 5747 5746 5745 5745 5744 5743 5742 5741 5740 5739 5738 5737 5736 5735 5733
5720 5722 5723 5725 5727 5729 5731 5733 5735 5737 5738 5740 5741 5742 5743 5744 5745 5746 5746 5747 5747 5747 5747 5747 5747 5746 5745 5745 5744 5743 5743 5742 5741 5740 5739 5738 5737 5737 5736 5735 5734 5732 5731
5716 5717 5719 5721 5722 5724 5726 5728 5730 5731 5733 5735 5736 5737 5739 5739 5740 5741 5742 5743 5743 5743 5743 5743 5743 5743 5742 5742 5741 5741 5740 5739 5738 5737 5736 5735 5735 5734 5734 5732 5731 5730 5728
5711 5712 5714 5716 5717 5719 5720 5722 5724 5726 5727 5729 5730 5732 5733 5734 5735 5736 5737 5738 5739 5739 5739 5739 5739 5739 5739 5739 5738 5738 5738 5737 5735 5735 5734 5733 5732 5732 5731 5730 5729 5727 5726
5706 5707 5708 5710 5711 5713 5714 5716 5717 5719 5721 5723 5724 5726 5727 5728 5730 5731 5732 5733 5734 5734 5735 5736 5735 5735 5735 5735 5735 5735 5734 5734 5733 5732 5731 5730 5729 5729 5728 5727 5726 5725 5723
5699 5701 5702 5703 5704 5706 5707 5709 5711 5712 5714 5716 5717 5719 5721 5722 5723 5725 5726 5727 5728 5729 5730 5731 5731 5731 5731 5731 5731 5731 5731 5730 5729 5729 5728 5728 5727 5726 5726 5724 5723 5722 5720
5693 5694 5695 5696 5697 5698 5700 5701 5703 5705 5706 5708 5710 5712 5713 5715 5717 5718 5720 5721 5722 5723 5724 5726 5726 5727 5727 5727 5727 5727 5727 5726 5726 5725 5725 5725 5725 5724 5723 5722 5720 5719 5717
5687 5687 5688 5689 5690 5691 5692 5694 5695 5696 5698 5700 5701 5703 5705 5707 5709 5711 5713 5714 5716 5717 5718 5719 5721 5722 5722 5722 5723 5723 5723 5723 5722 5722 5722 5721 5721 5721 5721 5719 5718 5716 5714
5679 5680 5680 5681 5682 5683 5684 5686 5687 5688 5689 5691 5692 5694 5696 5698 5700 5703 5704 5707 5709 5710 5712 5713 5714 5716 5716 5717 5717 5718 5718 5718 5718 5718 5718 5718 5718 5718 5718 5717 5715 5713 5711
5671 5672 5672 5673 5674 5675 5676 5677 5678 5679 5680 5682 5683 5685 5686 5688 5691 5693 5696 5698 5700 5703 5704 5706 5707 5709 5710 5711 5711 5712 5712 5712 5713 5713 5713 5714 5714 5714 5714 5713 5712 5710 5708
5664 5664 5665 5666 5666 5667 5668 5669 5670 5671 5672 5673 5674 5676 5677 5679 5681 5684 5686 5689 5691 5694 5696 5698 5699 5701 5702 5703 5704 5705 5705 5706 5707 5707 5708 5709 5709 5710 5710 5709 5708 5706 5705
5657 5658 5658 5659 5659 5659 5660 5661 5661 5662 5663 5664 5665 5667 5668 5670 5672 5674 5677 5679 5681 5684 5686 5688 5690 5692 5694 5695 5696 5697 5698 5699 5700 5701 5703 5704 5704 5705 5705 5705 5703 5702 5701
5651 5652 5652 5652 5652 5652 5652 5653 5653 5653 5653 5655 5656 5657 5658 5660 5662 5664 5666 5669 5671 5673 5675 5678 5680 5682 5685 5687 5688 5690 5691 5692 5694 5695 5696 5698 5698 5699 5700 5700 5699 5698 5697
5646 5645 5645 5645 5645 5645 5645 5645 5644 5644 5644 5645 5646 5647 5648 5649 5651 5653 5656 5658 5661 5663 5665 5667 5669 5672 5675 5677 5679 5682 5683 5685 5687 5688 5689 5691 5692 5693 5694 5694 5694 5693 5692
5640 5639 5639 5638 5638 5638 5637 5636 5636 5635 5635 5635 5636 5636 5637 5638 5640 5642 5645 5647 5649 5652 5654 5656 5658 5661 5664 5667 5669 5672 5675 5677 5679 5680 5682 5684 5685 5687 5688 5689 5689 5688 5688
5634 5633 5632 5632 5631 5630 5629 5628 5627 5626 5626 5625 5625 5626 5626 5627 5629 5630 5632 5634 5637 5639 5641 5644 5647 5649 5652 5655 5658 5661 5665 5668 5670 5672 5674 5675 5677 5679 5680 5682 5682 5682 5682
5628 5626 5625 5625 5623 5622 5621 5620 5618 5617 5616 5615 5615 5615 5615 5616 5617 5618 5619 5622 5624 5626 5628 5630 5634 5636 5639 5642 5646 5650 5654 5657 5661 5663 5665 5667 5668 5670 5672 5675 5676 5676 5676
5622 5620 5618 5617 5615 5613 5612 5610 5609 5608 5606 5605 5605 5604 5604 5604 5604 5605 5607 5608 5609 5611 5613 5615 5619 5621 5625 5628 5633 5638 5642 5647 5651 5654 5656 5658 5660 5661 5663 5666 5668 5668 5669
5616 5613 5611 5609 5607 5604 5602 5600 5598 5597 5596 5594 5593 5592 5592 5591 5591 5592 5593 5594 5595 5596 5598 5600 5603 5606 5609 5613 5618 5625 5630 5635 5640 5643 5646 5648 5650 5652 5654 5657 5659 5660 5662
5608 5605 5602 5600 5598 5595 5592 5589 5587 5585 5584 5583 5582 5580 5579 5578 5578 5579 5580 5580 5580 5580 5582 5584 5586 5590 5593 5596 5600 5608 5616 5622 5628 5632 5634 5637 5639 5642 5643 5646 5648 5650 5652
5599 5596 5594 5592 5589 5586 5583 5580 5577 5575 5573 5572 5570 5569 5567 5565 5565 5564 5564 5564 5564 5564 5566 5567 5568 5572 5576 5579 5582 5587 5597 5606 5614 5620 5622 5625 5628 5630 5632 5635 5637 5640 5642
5590 5588 5587 5583 5581 5578 5575 5571 5568 5564 5562 5560 5558 5557 5555 5553 5551 5549 5549 5549 5549 5548 5550 5551 5552 5554 5559 5563 5566 5570 5577 5588 5597 5606 5610 5613 5616 5618 5621 5624 5627 5629 5631
5583 5581 5578 5575 5572 5569 5566 5561 5557 5553 5551 5549 5547 5545 5543 5540 5538 5537 5535 5535 5535 5535 5536 5537 5538 5539 5543 5549 5553 5558 5564 5571 5575 5587 5596 5600 5603 5606 5609 5613 5616 5619 5621
5576 5572 5569 5566 5563 5560 5556 5552 5547 5543 5540 5538 5535 5532 5530 5528 5527 5525 5523 5523 5523 5523 5524 5525 5526 5528 5531 5536 5541 5546 5551 5556 5562 5566 5578 5586 5590 5595 5598 5601 5605 5608 5611
5566 5562 5559 5556 5553 5550 5546 5541 5537 5532 5529 5525 5523 5520 5518 5517 5516 5514 5511 5511 5511 5512 5513 5514 5516 5518 5522 5526 5531 5536 5540 5545 5551 5554 5562 5571 5576 5583 5586 5590 5593 5597 5600